Station PRUR1 - 8452314 - Sandy Point, Prudence Island, RI Image indicating link to RSS feed of recent meteorological observations for station PRUR1


Conditions at PRUR1 as of
(9:00 am EDT)
1300 GMT on 09/01/2026:
     

Click on the graph icon in the table below to see a time series plot of the last five days of that observation.

5-day plot - Air Temperature Air Temperature (ATMP): 69.1 °F
5-day plot - Dew Point Dew Point (DEWP): 67.1 °F
5-day plot - Visibility Visibility (VIS): 3.2 nmi
NOS Water Level Observation Network Water Level
Previous observations
TIME
(EDT)
5-day plot - Wind Direction
WDIR
 
5-day plot - Wind Speed
WSPD
kts
5-day plot - Wind Gust
GST
kts
5-day plot - Wave Height
WVHT
ft
5-day plot - Dominant Wave Period
DPD
sec
5-day plot - Average Wave Period
APD
sec
5-day plot - Mean Wave Direction
MWD
 
5-day plot - Atmospheric Pressure
PRES
in
5-day plot - Pressure Tendency
PTDY
in
5-day plot - Air Temperature
ATMP
°F
5-day plot - Water Temperature
WTMP
°F
5-day plot - Dew Point
DEWP
°F
5-day plot - Salinity
SAL
psu
5-day plot - Visibility
VIS
nmi
5-day plot - Tide (above MLLW)
TIDE
ft
2026-09-01 08:54 am--------- 69.4- 67.1- 4.3-
2026-09-01 08:30 am--------- 70.0- 66.2- 5.9-
2026-09-01 08:24 am--------- 70.0- 66.2- 5.9-
2026-09-01 08:00 am--------- 69.8- 66.2- 5.9-
2026-09-01 07:54 am--------- 70.0- 66.6- 5.9-
2026-09-01 07:48 am--------- 70.0- 66.6- 5.9-
2026-09-01 07:42 am--------- 69.8- 66.4- 5.9-
2026-09-01 07:36 am--------- 69.8- 66.4- 5.9-
2026-09-01 07:30 am--------- 69.8- 66.6- 5.9-
2026-09-01 07:24 am--------- 69.6- 66.4- 5.9-
2026-09-01 07:00 am--------- 69.3- 66.0- 5.9-
2026-09-01 06:54 am--------- 69.3- 66.0- 5.9-
2026-09-01 06:48 am--------- 69.3- 66.0- 5.9-
2026-09-01 06:42 am--------- 69.3- 66.2- 5.9-
2026-09-01 06:36 am--------- 69.3- 66.4- 5.9-
2026-09-01 06:30 am--------- 69.3- 66.2- 5.9-
2026-09-01 06:24 am--------- 69.3- 66.2- 5.9-
2026-09-01 06:00 am--------- 68.7- 66.4- 5.9-
2026-09-01 05:54 am--------- 68.7- 66.6- 5.9-
2026-09-01 05:48 am--------- 68.5- 66.4- 5.9-
2026-09-01 05:42 am--------- 68.7- 66.4- 5.9-
2026-09-01 05:36 am--------- 69.3- 66.6- 5.9-
2026-09-01 05:30 am--------- 69.3- 66.7- 5.9-
2026-09-01 05:24 am--------- 69.3- 66.7- 5.9-
2026-09-01 05:00 am--------- 69.1- 66.9- 5.9-
2026-09-01 04:54 am--------- 69.1- 66.7- 5.9-
2026-09-01 04:30 am--------- 68.7- 66.2- 5.9-
2026-09-01 04:24 am--------- 68.9- 66.2- 5.9-
2026-09-01 04:00 am--------- 68.4- 66.0- 5.9-
2026-09-01 03:54 am--------- 68.5- 66.0- 5.9-
2026-09-01 03:48 am--------- 68.5- 66.0- 5.9-
2026-09-01 03:42 am--------- 68.5- 65.8- 5.9-
2026-09-01 03:36 am--------- 69.4- 66.2- 5.9-
2026-09-01 03:30 am--------- 69.4- 66.0- 5.9-
2026-09-01 03:24 am--------- 69.6- 66.2- 5.9-
2026-09-01 03:18 am--------- 69.4- 66.2- 5.9-
2026-09-01 03:12 am--------- 69.4- 66.2- 5.9-
2026-09-01 03:06 am--------- 70.0- 66.2- 5.9-
2026-09-01 03:00 am--------- 68.9- 65.7- 5.9-
2026-09-01 02:54 am--------- 68.4- 65.5- 5.9-
2026-09-01 02:48 am--------- 68.2- 65.3- 5.9-
2026-09-01 02:42 am--------- 68.4- 65.3- 5.9-
2026-09-01 02:36 am--------- 68.5- 65.1- 5.9-
2026-09-01 02:00 am--------- 69.1- 64.9- 5.9-
2026-09-01 01:54 am--------- 68.7- 64.8- 5.9-
2026-09-01 01:48 am--------- 68.9- 64.6- 5.9-
2026-09-01 01:42 am--------- 68.9- 64.6- 5.9-
2026-09-01 01:36 am--------- 68.9- 64.4- 5.9-
2026-09-01 01:30 am--------- 68.9- 64.2- 5.9-
2026-09-01 01:24 am--------- 68.7- 64.2- 5.9-
2026-09-01 01:00 am--------- 69.8- 64.8- 5.9-
2026-09-01 12:54 am--------- 69.6- 64.8- 5.9-
2026-09-01 12:48 am--------- 69.6- 64.9- 5.9-
2026-09-01 12:42 am--------- 69.4- 65.1- 5.9-
2026-09-01 12:36 am--------- 69.4- 65.8- 5.9-
2026-09-01 12:30 am--------- 68.7- 64.4- 5.9-
2026-09-01 12:24 am--------- 68.5- 64.6- 5.9-
2026-09-01 12:00 am--------- 68.5- 65.3- 5.9-
2026-08-31 11:54 pm--------- 68.5- 65.1- 5.9-
2026-08-31 11:30 pm--------- 69.1- 65.3- 5.9-
2026-08-31 11:24 pm--------- 69.1- 65.1- 5.9-
2026-08-31 11:00 pm--------- 69.3- 65.8- 5.9-
2026-08-31 10:54 pm--------- 69.3- 65.8- 5.9-
2026-08-31 10:48 pm--------- 69.4- 66.0- 5.9-
2026-08-31 10:42 pm--------- 69.4- 65.8- 5.9-
2026-08-31 10:36 pm--------- 69.4- 65.7- 5.9-
2026-08-31 10:30 pm--------- 69.4- 65.5- 5.9-
2026-08-31 10:24 pm--------- 69.4- 65.7- 5.9-
2026-08-31 10:00 pm--------- 69.3- 64.2- 5.9-
2026-08-31 09:54 pm--------- 69.3- 64.0- 5.9-
2026-08-31 09:48 pm--------- 69.3- 63.7- 5.9-
2026-08-31 09:42 pm--------- 69.1- 63.9- 5.9-
2026-08-31 09:36 pm--------- 68.5- 64.4- 5.9-
2026-08-31 09:30 pm--------- 68.5- 64.2- 5.9-
2026-08-31 09:24 pm--------- 69.1- 64.8- 5.9-
2026-08-31 09:00 pm--------- 69.3- 64.2- 5.9-
2026-08-31 08:54 pm--------- 69.3- 64.2- 5.9-
2026-08-31 08:30 pm--------- 69.4- 64.8- 5.9-
2026-08-31 08:24 pm--------- 69.4- 64.6- 5.9-
2026-08-31 08:00 pm--------- 69.8- 65.1- 5.9-
2026-08-31 07:54 pm--------- 69.8- 64.6- 5.9-
2026-08-31 06:48 pm--------- 69.8- 64.4- 5.9-
2026-08-31 06:42 pm--------- 70.0- 64.8- 5.9-
2026-08-31 06:36 pm--------- 70.0- 64.6- 5.9-
2026-08-31 06:30 pm--------- 70.0- 64.6- 5.9-
2026-08-31 06:24 pm--------- 70.0- 64.8- 5.9-
2026-08-31 06:18 pm--------- 69.8- 64.8- 5.9-
2026-08-31 06:12 pm--------- 70.0- 64.9- 5.9-
2026-08-31 06:06 pm--------- 70.0- 65.1- 5.9-
2026-08-31 06:00 pm--------- 70.2- 65.3- 5.9-
2026-08-31 05:54 pm--------- 70.0- 64.4- 5.9-
2026-08-31 05:48 pm--------- 70.0- 65.1- 5.9-
2026-08-31 05:42 pm--------- 70.5- 65.8- 5.9-
2026-08-31 05:36 pm--------- 70.2- 64.6- 5.9-
2026-08-31 05:30 pm--------- 70.3- 64.4- 5.9-
2026-08-31 05:24 pm--------- 70.5- 64.4- 5.9-
2026-08-31 05:00 pm--------- 71.4- 64.0- 5.9-
2026-08-31 04:54 pm--------- 71.2- 63.1- 5.9-
2026-08-31 04:48 pm--------- 71.2- 63.9- 5.9-
2026-08-31 04:42 pm--------- 71.2- 64.2- 5.9-
2026-08-31 04:36 pm--------- 71.2- 63.5- 5.9-
2026-08-31 04:30 pm--------- 71.4- 64.2- 5.9-
2026-08-31 04:24 pm--------- 71.2- 64.0- 5.9-
2026-08-31 04:00 pm--------- 71.1- 63.1- 5.9-
2026-08-31 03:54 pm--------- 70.9- 63.0- 5.9-
2026-08-31 03:48 pm--------- 71.1- 63.1- 5.9-
2026-08-31 03:42 pm--------- 71.1- 62.4- 5.9-
2026-08-31 03:36 pm--------- 71.2- 62.4- 5.9-
2026-08-31 03:30 pm--------- 71.4- 61.3- 5.9-
2026-08-31 03:24 pm--------- 71.6- 61.7- 5.9-
2026-08-31 03:00 pm--------- 71.8- 62.2- 5.9-
2026-08-31 02:54 pm--------- 71.8--- 5.9-
2026-08-31 02:48 pm--------- 71.8--- 5.9-
2026-08-31 02:42 pm--------- 71.8--- 5.9-
2026-08-31 02:36 pm--------- 71.8--- 5.9-
2026-08-31 02:30 pm--------- 72.7--- 5.9-
2026-08-31 02:24 pm--------- 72.9--- 5.9-
2026-08-31 02:00 pm--------- 74.8- 54.0- 5.9-
2026-08-31 01:54 pm--------- 75.0- 53.2- 5.9-
2026-08-31 01:30 pm--------- 75.0- 52.9- 5.9-
2026-08-31 01:24 pm--------- 74.7- 54.3- 5.9-
2026-08-31 01:00 pm--------- 73.9- 55.4- 5.9-
2026-08-31 12:54 pm--------- 73.8- 55.9- 5.9-
2026-08-31 12:48 pm--------- 73.4- 56.8- 5.9-
2026-08-31 12:42 pm--------- 72.7- 59.7- 5.9-
2026-08-31 12:36 pm--------- 72.7- 60.8- 5.9-
2026-08-31 12:30 pm--------- 72.5- 61.2- 5.9-
2026-08-31 12:24 pm--------- 73.6- 61.3- 5.9-
2026-08-31 12:00 pm--------- 72.5- 61.3- 5.9-
2026-08-31 11:54 am--------- 72.1- 61.5- 5.9-
2026-08-31 11:48 am--------- 72.0- 61.2- 5.9-
2026-08-31 11:42 am--------- 72.0- 61.2- 5.9-
2026-08-31 11:36 am--------- 72.0- 61.7- 5.9-
2026-08-31 11:30 am--------- 71.6- 62.2- 5.9-
2026-08-31 11:24 am--------- 72.0- 61.9- 5.9-
2026-08-31 11:00 am--------- 71.2- 62.4- 5.9-
2026-08-31 10:54 am--------- 70.5- 61.3- 5.9-
2026-08-31 10:48 am--------- 70.3- 62.1- 5.9-
2026-08-31 10:42 am--------- 70.3- 61.9- 5.9-
2026-08-31 10:36 am--------- 70.3- 62.4- 5.9-
2026-08-31 10:30 am--------- 70.7- 62.1- 5.9-
2026-08-31 10:24 am--------- 70.2- 62.4- 5.9-
2026-08-31 10:00 am--------- 69.4- 61.5- 5.9-
2026-08-31 09:54 am--------- 69.6- 62.1- 5.9-
2026-08-31 09:30 am--------- 69.3- 62.6- 5.9-
2026-08-31 09:24 am--------- 69.6- 63.0- 5.9-
2026-08-31 09:00 am--------- 69.3- 63.7- 5.9-
2026-08-31 08:54 am--------- 69.3- 64.6- 5.9-